SKYSAT-B

Last updated on Sun Dec 07 2025 00:02:30 GMT+0000 (Coordinated Universal Time)

1 40072U 14037D 25340.56462807 .00003005 00000+0 33975-3 0 9997 2 40072 98.3603 283.9447 0005641 168.7784 191.3557 14.87291670617323
UTC large
Height (km)
Speed (km/s)
/
Latitude / Longitude
Inclination (degrees)
Orbital Period (minutes)
Azimuth
Elevation
Range (km)
Doppler Factor

Next 0 passes for location: London (51.5072 / 0.1276)

Sorry there are no passes over London.